TimeEET,TemperatureF,Dew PointF,Humidity,Sea Level PressureIn,VisibilityMPH,Wind Direction,Wind SpeedMPH,Gust SpeedMPH,PrecipitationIn,Events,Conditions,WindDirDegrees,DateUTC
12:20 AM,57.2,55.4,94,30.01,3.1,North,6.9,-,N/A,,Mostly Cloudy,10,2013-03-28 22:20:00
12:50 AM,57.2,53.6,88,30.01,3.1,NNE,6.9,-,N/A,,Mostly Cloudy,30,2013-03-28 22:50:00
1:20 AM,57.2,55.4,94,30.01,3.1,NE,5.8,-,N/A,,Mostly Cloudy,40,2013-03-28 23:20:00
1:50 AM,57.2,55.4,94,30.01,3.1,NNE,5.8,-,N/A,,Mostly Cloudy,20,2013-03-28 23:50:00
2:20 AM,57.2,55.4,94,30.01,3.1,NE,5.8,-,N/A,,Mostly Cloudy,40,2013-03-29 00:20:00
2:50 AM,57.2,55.4,94,30.01,3.1,NNE,6.9,-,N/A,,Mostly Cloudy,20,2013-03-29 00:50:00
3:20 AM,57.2,55.4,94,30.01,3.1,NNE,6.9,-,N/A,,Mostly Cloudy,20,2013-03-29 01:20:00
3:50 AM,57.2,53.6,88,30.01,3.1,NE,8.1,-,N/A,,Mostly Cloudy,40,2013-03-29 01:50:00
4:20 AM,57.2,53.6,88,30.01,3.1,NNE,6.9,-,N/A,,Mostly Cloudy,20,2013-03-29 02:20:00
4:50 AM,57.2,53.6,88,30.01,3.1,NNE,6.9,-,N/A,,Mostly Cloudy,20,2013-03-29 02:50:00
5:20 AM,57.2,53.6,88,30.01,3.1,NE,5.8,-,N/A,,Mostly Cloudy,40,2013-03-29 03:20:00
5:50 AM,57.2,55.4,94,30.04,3.1,NNE,4.6,-,N/A,,Mostly Cloudy,20,2013-03-29 03:50:00
6:20 AM,59.0,55.4,88,30.04,3.1,NNE,4.6,-,N/A,,Mostly Cloudy,20,2013-03-29 04:20:00
6:50 AM,59.0,55.4,88,30.04,6.2,NNE,4.6,-,N/A,,Mostly Cloudy,20,2013-03-29 04:50:00
7:20 AM,60.8,57.2,88,30.04,6.2,NNE,5.8,-,N/A,,Scattered Clouds,20,2013-03-29 05:20:00
7:50 AM,62.6,55.4,77,30.04,6.2,NE,4.6,-,N/A,,Scattered Clouds,40,2013-03-29 05:50:00
8:20 AM,64.4,55.4,73,30.04,6.2,Variable,3.5,-,N/A,,Scattered Clouds,0,2013-03-29 06:20:00
8:50 AM,64.4,55.4,73,30.06,6.2,Variable,2.3,-,N/A,,Mostly Cloudy,0,2013-03-29 06:50:00
9:20 AM,66.2,55.4,68,30.06,6.2,Variable,1.2,-,N/A,,Mostly Cloudy,0,2013-03-29 07:20:00
9:50 AM,66.2,55.4,68,30.06,6.2,Variable,2.3,-,N/A,,Mostly Cloudy,0,2013-03-29 07:50:00
10:20 AM,68.0,55.4,64,30.06,6.2,SSE,4.6,-,N/A,,Mostly Cloudy,150,2013-03-29 08:20:00
10:50 AM,69.8,55.4,60,30.06,6.2,Variable,3.5,-,N/A,,Mostly Cloudy,0,2013-03-29 08:50:00
11:20 AM,68.0,55.4,64,30.04,6.2,Variable,2.3,-,N/A,,Mostly Cloudy,0,2013-03-29 09:20:00
11:50 AM,71.6,55.4,57,30.04,6.2,Variable,2.3,-,N/A,,Mostly Cloudy,0,2013-03-29 09:50:00
12:20 PM,71.6,53.6,53,30.04,6.2,Variable,3.5,-,N/A,,Scattered Clouds,0,2013-03-29 10:20:00
12:50 PM,71.6,53.6,53,30.04,6.2,South,5.8,-,N/A,,Scattered Clouds,190,2013-03-29 10:50:00
1:20 PM,71.6,53.6,53,30.01,6.2,Variable,4.6,-,N/A,,Scattered Clouds,0,2013-03-29 11:20:00
1:50 PM,73.4,51.8,47,30.01,6.2,Variable,3.5,-,N/A,,Scattered Clouds,0,2013-03-29 11:50:00
2:20 PM,73.4,51.8,47,30.01,6.2,Variable,2.3,-,N/A,,Scattered Clouds,0,2013-03-29 12:20:00
2:50 PM,73.4,51.8,47,30.01,6.2,SSW,6.9,-,N/A,,Scattered Clouds,200,2013-03-29 12:50:00
3:20 PM,69.8,57.2,64,30.01,6.2,WSW,10.4,-,N/A,,Scattered Clouds,240,2013-03-29 13:20:00
3:50 PM,69.8,57.2,64,30.01,6.2,SW,11.5,-,N/A,,Scattered Clouds,230,2013-03-29 13:50:00
4:20 PM,69.8,55.4,60,30.01,6.2,SW,11.5,-,N/A,,Scattered Clouds,230,2013-03-29 14:20:00
4:50 PM,68.0,55.4,64,30.01,6.2,SW,10.4,-,N/A,,Scattered Clouds,220,2013-03-29 14:50:00
5:20 PM,66.2,55.4,68,30.01,6.2,SSW,5.8,-,N/A,,Scattered Clouds,210,2013-03-29 15:20:00
5:50 PM,64.4,55.4,73,30.01,6.2,SW,4.6,-,N/A,,Scattered Clouds,220,2013-03-29 15:50:00
6:20 PM,62.6,55.4,77,30.01,6.2,SSW,4.6,-,N/A,,Scattered Clouds,200,2013-03-29 16:20:00
6:50 PM,60.8,55.4,82,30.04,3.1,SW,4.6,-,N/A,,Scattered Clouds,220,2013-03-29 16:50:00
7:20 PM,60.8,55.4,82,30.04,3.1,SSW,4.6,-,N/A,,Partly Cloudy,200,2013-03-29 17:20:00
7:50 PM,60.8,55.4,82,30.04,3.1,SSW,2.3,-,N/A,,Partly Cloudy,210,2013-03-29 17:50:00
8:20 PM,59.0,53.6,82,30.04,3.1,Variable,2.3,-,N/A,,Partly Cloudy,0,2013-03-29 18:20:00
8:50 PM,59.0,53.6,82,30.04,3.1,Calm,Calm,-,N/A,,Partly Cloudy,0,2013-03-29 18:50:00
9:20 PM,59.0,53.6,82,30.06,3.1,Variable,2.3,-,N/A,,Partly Cloudy,0,2013-03-29 19:20:00
9:50 PM,60.8,53.6,77,30.06,-9999.0,Variable,2.3,-,N/A,,Clear,0,2013-03-29 19:50:00
10:20 PM,59.0,51.8,77,30.06,-9999.0,Calm,Calm,-,N/A,,Clear,0,2013-03-29 20:20:00
10:50 PM,57.2,51.8,82,30.06,-9999.0,SSW,1.2,-,N/A,,Clear,210,2013-03-29 20:50:00
11:20 PM,55.4,51.8,88,30.06,-9999.0,Calm,Calm,-,N/A,,Clear,0,2013-03-29 21:20:00
11:50 PM,55.4,53.6,94,30.06,-9999.0,West,3.5,-,N/A,,Clear,260,2013-03-29 21:50:00